Temp
8 8 9 9 10 11 12 9 5 13 13 7 4 6 10 11 11 12 12 12 12 11 11 11 7 10 12 12 12 11 10 9 6 11 13 10 10 11 11 7 9 7 10 10
8 9 9 9 10 10 9 6 7 13 11 6 5 10 11 11 11 11 12 12 12 12 12 11 10 9 12 12 12 11 10 9 10 10 11 12 11 10 11 11 9 10 10 10
8 8 9 10 10 10 9 6 6 6 6 6 7 9 10 10 11 11 12 12 12 11 12 12 11 8 12 12 12 12 11 11 11 8 10 12 9 11 11 10 10 10 9 10
8 8 9 10 10 11 11 6 5 7 7 8 10 10 11 11 10 11 11 11 12 11 11 11 11 9 11 11 12 11 10 9 10 11 11 11 11 12 12 10 11 9 12 10
8 8 8 9 11 11 11 7 6 6 7 9 10 9 11 11 11 11 11 11 11 10 10 12 11 10 10 10 10 9 11 9 10 9 11 11 11 12 12 12 12 11 11 12
8 8 9 9 10 11 9 9 9 7 7 8 8 8 11 11 11 11 11 11 11 11 10 10 10 9 9 10 10 9 10 9 8 8 10 10 9 11 12 12 12 12 11 12
7 8 8 8 9 10 9 8 7 7 8 7 9 11 11 11 10 10 11 10 10 10 9 9 9 8 8 8 9 9 9 9 9 8 9 11 13 14 14 12 13 12 13 12
7 7 8 8 8 9 9 8 8 6 7 7 10 11 10 10 9 10 10 10 9 8 9 8 9 9 10 9 8 8 9 9 8 9 8 9 13 12 12 12 12 12 12 13
7 7 8 8 8 8 8 9 8 6 6 8 10 9 10 7 7 8 9 9 9 9 8 8 10 9 10 10 9 9 8 8 8 7 9 10 12 13 13 13 11 13 12 12
7 7 7 8 8 8 8 9 8 7 5 6 10 8 8 8 8 7 8 8 7 8 7 8 7 9 12 10 10 7 7 8 8 7 7 8 11 12 13 13 12 13 14 14
7 7 7 7 7 7 7 8 8 7 4 4 9 9 9 8 7 7 7 7 6 5 8 8 8 8 9 9 9 7 7 6 6 6 7 7 10 12 12 12 12 13 14 14
7 7 7 7 6 7 7 7 7 7 5 5 8 9 9 10 9 7 6 8 7 6 7 6 7 9 4 7 8 10 9 9 9 8 9 10 10 11 11 11 11 12 13 12
7 7 6 6 7 6 6 7 7 6 3 4 5 5 7 7 8 9 7 5 8 7 6 6 6 7 5 7 6 10 10 9 9 11 11 9 11 10 10 10 10 10 10 11
7 6 6 6 6 6 6 6 6 7 5 5 5 6 6 6 6 7 8 7 7 7 5 6 5 6 7 6 8 6 8 9 9 7 8 9 10 9 10 10 10 10 9 9
7 6 6 6 6 6 6 5 6 6 7 5 4 5 5 5 5 5 6 6 5 4 5 4 5 5 6 5 5 4 6 9 10 11 9 10 10 10 10 9 8 8 7 7
7 6 5 5 6 6 5 4 5 5 5 4 4 4 4 4 4 5 5 5 4 4 4 4 4 5 6 5 4 7 6 7 8 10 8 8 8 8 8 8 7 8 7 6
7 6 5 5 5 5 5 5 5 5 5 4 3 4 3 4 4 3 2 4 2 3 3 3 4 5 5 3 6 7 8 8 9 7 10 9 8 8 8 7 6 7 6 6
7 5 5 5 5 5 5 6 6 6 6 4 2 3 2 3 2 2 1 2 1 2 3 2 3 3 3 4 5 9 10 8 7 8 7 7 7 5 5 5 5 4 4 4
6 5 5 5 5 5 5 6 6 6 5 2 2 2 4 2 3 1 1 1 1 2 2 2 3 3 4 7 7 7 6 7 8 7 7 6 5 5 4 4 5 5 4 4
4 4 4 4 5 5 5 3 3 2 3 2 3 2 3 2 2 2 1 1 3 -0 3 2 3 5 7 6 7 7 6 6 6 8 7 7 6 5 5 5 4 4 4 4
4 4 4 2 2 3 3 4 3 3 3 3 3 3 2 2 3 3 2 1 1 -0 3 3 3 4 5 6 7 8 6 5 5 6 6 6 5 4 4 4 5 5 5 4
4 4 2 1 2 2 3 3 3 2 3 2 1 2 2 2 2 4 3 2 -1 2 2 0 2 5 7 6 6 5 6 5 5 5 5 5 4 5 4 4 4 5 5 6
3 2 1 2 2 4 3 3 3 1 2 0 0 1 1 1 2 3 3 0 2 2 -1 1 3 6 6 5 5 4 4 4 4 5 6 6 5 6 5 4 6 6 5 6
2 2 3 3 4 2 2 2 1 2 0 2 1 1 2 2 2 3 1 4 2 -1 -0 4 4 5 6 4 4 3 3 5 5 5 5 4 4 4 6 5 5 5 4 5
2 2 4 3 2 -2 -0 -1 -0 0 1 2 3 2 3 2 3 3 2 1 2 2 3 4 3 4 2 3 3 3 2 3 3 3 3 4 4 3 3 5 4 4 3 3
1 1 3 4 4 3 -2 -3 0 1 3 2 2 2 3 4 4 3 2 1 1 4 2 3 3 3 -0 3 3 3 2 1 1 2 3 4 4 2 3 4 5 5 4 3
2 2 3 3 2 0 1 2 2 2 4 3 3 4 4 3 4 3 3 2 4 4 5 3 3 3 3 3 3 3 3 3 2 4 4 5 5 4 2 -0 4 4 4 3
Height
838 836 832 826 823 820 817 821 835 815 813 827 836 846 831 832 834 832 832 831 832 834 834 838 854 842 833 833 836 841 842 847 866 838 827 836 840 838 841 865 855 860 842 821
839 836 834 828 824 822 822 822 826 817 816 842 848 832 832 832 832 833 831 831 831 831 832 836 841 843 834 833 833 838 843 846 844 842 836 833 833 834 834 836 844 838 839 816
838 836 835 831 827 823 823 826 836 827 825 831 837 835 835 836 832 833 831 832 832 833 832 832 836 845 833 834 834 835 837 837 836 854 836 825 839 827 827 833 838 830 828 813
838 836 835 833 829 826 824 829 841 833 844 841 834 832 832 834 836 832 830 831 830 834 834 833 836 840 836 836 834 838 842 844 837 828 823 822 818 815 814 825 819 830 803 812
838 837 836 834 831 827 828 831 836 837 838 831 834 840 835 832 833 833 833 833 829 833 836 830 830 835 838 835 838 840 834 841 832 832 815 815 814 806 804 804 806 808 804 797
838 837 835 835 834 829 830 832 830 830 839 839 841 841 834 834 832 831 832 832 833 833 833 831 831 833 834 833 836 840 835 841 843 836 816 817 817 797 795 795 794 793 803 780
838 836 836 835 835 835 833 832 834 836 836 839 838 830 829 831 835 836 832 833 834 835 833 832 831 833 834 833 832 833 834 837 838 839 826 813 784 777 777 784 779 780 777 774
837 836 836 835 836 836 835 834 833 837 840 835 828 828 831 834 834 835 835 833 833 834 834 838 834 834 828 824 828 831 833 838 843 836 837 811 778 781 781 783 777 771 771 768
837 837 834 834 835 834 835 835 834 833 840 836 825 827 829 841 843 838 831 832 833 834 839 839 830 838 822 824 827 828 832 835 843 844 835 817 784 775 774 777 790 766 766 767
835 836 835 833 833 834 833 834 835 835 838 828 824 829 828 826 831 837 834 834 836 836 842 840 849 834 816 824 826 839 842 835 838 843 843 814 781 775 776 784 785 765 762 762
834 833 834 834 832 831 832 833 832 836 838 828 822 821 824 823 825 830 831 836 840 845 841 841 836 835 829 826 821 830 835 847 845 845 840 826 775 776 779 772 766 764 762 762
830 831 831 831 833 832 829 831 831 831 834 829 824 820 818 819 819 822 825 824 828 829 836 838 835 829 844 833 829 809 819 808 812 814 798 774 772 766 764 764 766 763 761 762
826 827 830 829 830 832 831 828 828 829 829 823 821 817 815 815 816 818 824 825 819 821 823 831 833 831 832 829 830 804 798 797 798 790 768 769 764 762 760 759 760 759 758 757
821 822 824 827 827 828 830 829 827 826 827 829 818 814 815 813 812 814 815 815 818 820 822 827 832 831 820 821 809 811 798 794 791 790 771 766 759 758 755 754 754 754 754 754
816 818 820 823 825 825 827 827 826 825 824 825 819 811 810 810 812 812 812 816 818 821 825 827 826 822 818 814 812 802 787 778 779 766 758 757 754 752 753 754 753 752 752 750
811 812 816 819 822 824 825 824 820 821 824 824 820 810 808 808 808 810 812 812 816 819 819 820 814 806 809 815 806 771 765 761 758 755 753 754 752 752 751 750 750 749 749 747
806 806 810 816 819 821 822 820 819 818 824 825 821 809 807 808 809 811 811 810 812 817 818 816 811 807 804 806 779 754 750 748 747 749 750 751 749 748 745 746 745 743 741 740
801 803 807 811 816 819 818 818 819 818 820 821 826 811 811 806 809 810 811 814 811 809 811 811 809 807 805 786 747 736 735 741 742 740 742 743 745 746 744 742 741 740 739 736
796 801 807 811 813 813 809 813 816 817 820 819 818 819 807 806 806 809 807 810 817 806 802 803 804 797 778 732 733 731 734 737 732 733 738 742 744 744 744 744 740 739 736 733
797 801 805 805 804 805 806 810 813 813 809 808 806 800 802 802 805 810 811 806 805 818 793 792 790 764 734 729 719 720 724 727 732 732 735 738 741 742 742 742 740 738 735 732
800 800 799 803 802 804 805 806 807 804 801 796 789 785 793 794 798 801 804 808 801 813 787 788 776 752 727 709 706 709 713 718 722 724 727 732 734 736 736 735 733 732 731 730
798 799 800 803 802 802 802 800 799 796 791 786 787 784 783 789 787 790 796 800 807 794 784 795 773 724 702 704 704 704 705 708 716 721 723 727 730 732 732 732 731 729 727 725
795 798 799 797 795 793 790 792 789 794 776 778 782 786 784 788 788 788 789 802 793 785 795 779 748 706 699 701 702 707 705 709 714 720 720 725 727 731 731 729 726 725 723 721
793 792 789 786 781 778 771 772 773 769 771 772 775 780 780 781 786 784 793 776 785 795 792 749 717 708 702 701 704 707 711 709 709 713 718 721 723 724 724 727 727 726 724 720
787 785 772 768 762 768 765 764 768 767 765 770 774 777 777 782 779 776 782 789 780 768 747 725 712 706 706 701 705 709 712 713 712 711 717 719 717 722 722 718 721 722 721 719
783 775 764 759 757 758 769 767 764 764 765 771 772 777 777 771 766 772 773 780 771 740 733 718 711 706 703 702 704 708 707 710 709 710 712 715 713 712 715 714 711 715 717 716
769 760 758 759 759 757 755 757 756 758 763 766 768 768 762 761 760 763 756 754 734 728 720 715 711 705 701 700 703 706 706 706 708 709 709 711 710 710 709 709 705 705 708 709
Wind_Speed
17 21 24 24 17 9 6 3 3 11 12 4 2 2 4 2 2 2 1 0 2 2 4 4 3 3 1 5 6 2 3 2 1 5 4 9 5 6 5 3 3 3 3 6
16 19 22 23 16 13 5 3 1 6 7 3 3 1 3 3 2 1 1 2 1 1 1 2 4 4 2 5 3 3 4 1 2 1 3 4 4 5 6 3 2 6 3 5
14 16 19 23 15 10 4 2 3 4 4 1 6 3 2 3 0 2 1 2 3 1 1 1 2 2 2 4 1 5 5 2 5 5 5 3 4 6 8 7 3 3 7 9
12 14 17 22 20 9 3 3 2 3 1 4 3 3 3 2 2 2 3 1 3 3 1 3 3 2 1 2 4 3 4 4 5 11 14 12 13 12 12 13 14 6 4 6
11 12 15 20 23 7 4 2 3 3 1 3 4 4 3 4 1 4 2 2 5 4 4 1 1 4 3 4 3 5 4 4 3 7 12 12 14 14 15 17 16 18 17 22
8 10 10 15 21 11 5 4 1 4 2 1 3 3 2 3 3 2 1 1 2 3 6 2 2 2 2 3 6 6 3 2 3 5 6 7 6 9 14 7 6 13 13 17
8 8 10 10 14 16 4 3 2 2 1 3 3 2 2 4 2 3 1 2 0 2 4 5 3 4 5 6 7 5 1 2 2 5 6 2 5 4 5 12 13 14 12 9
7 6 7 8 9 11 7 3 1 2 2 3 1 4 3 3 3 2 3 3 3 2 3 3 4 2 2 5 6 7 6 2 3 2 2 8 7 2 4 5 6 7 16 12
9 7 4 5 6 6 4 6 1 3 3 4 3 4 5 4 3 1 3 2 2 3 1 2 2 3 4 1 2 3 4 4 2 3 2 4 5 2 3 4 4 4 4 7
10 9 8 4 3 4 3 1 2 1 2 4 1 3 5 6 3 2 2 2 1 2 1 2 3 3 1 2 3 4 2 2 8 6 4 8 8 4 3 1 5 3 3 1
12 10 9 8 4 1 3 3 1 1 2 5 3 5 3 1 3 4 4 3 2 2 1 2 3 3 3 2 3 6 7 5 4 4 4 8 6 4 6 5 2 2 2 2
12 13 11 9 9 4 3 3 3 3 3 4 5 8 10 7 4 4 3 4 5 5 2 2 1 1 1 4 3 2 3 7 5 10 7 6 7 6 5 4 4 3 3 5
12 12 13 11 10 9 7 4 3 2 1 4 2 5 6 13 12 9 4 3 3 3 3 3 3 4 4 3 5 3 4 5 4 1 4 12 12 7 7 6 6 6 6 6
15 12 12 12 11 10 10 7 4 4 1 2 4 2 5 5 12 13 9 6 3 4 3 2 2 2 4 4 4 5 6 5 5 7 10 10 15 6 2 3 2 3 5 6
15 13 12 12 11 9 11 14 15 12 3 3 4 2 3 4 8 10 8 7 3 2 2 2 4 3 1 3 2 5 6 9 7 7 9 5 5 4 4 5 7 7 7 7
15 14 12 12 11 9 4 2 9 19 10 1 3 1 1 2 7 9 7 7 2 2 3 4 3 3 4 3 4 7 8 5 8 6 5 5 7 8 5 6 5 4 6 7
18 16 12 12 12 14 5 3 4 6 13 1 4 3 1 4 4 1 2 3 2 3 2 3 3 3 4 3 8 6 9 12 13 8 2 6 5 6 3 4 8 12 12 15
17 16 13 12 12 12 16 19 5 11 3 1 2 3 2 9 3 3 2 1 1 2 3 2 2 1 3 6 8 17 17 9 7 9 8 7 4 6 7 7 6 7 7 7
16 14 11 9 8 6 6 11 16 17 6 3 3 2 4 3 2 1 2 2 1 1 4 3 4 4 8 11 12 11 10 9 7 6 4 4 6 8 7 6 7 5 6 5
18 14 5 3 5 9 14 6 2 2 3 3 4 2 3 4 2 1 1 2 3 2 5 3 4 6 13 11 16 9 8 11 7 4 4 3 4 4 4 5 6 5 6 6
4 4 2 4 14 4 1 3 4 3 3 4 5 9 4 3 3 3 3 3 2 1 4 5 3 5 6 13 18 14 10 10 10 7 6 5 5 6 5 6 4 5 6 3
8 4 5 5 2 2 4 4 2 4 5 3 3 4 3 2 3 2 3 3 2 5 3 1 4 6 10 6 6 7 13 12 9 8 8 7 5 6 5 5 5 6 7 8
8 4 3 3 3 5 7 8 4 3 3 4 2 0 3 1 1 1 3 3 6 1 1 4 6 6 4 3 3 4 6 9 9 7 5 4 5 8 8 8 11 11 10 10
3 5 5 5 4 6 5 4 4 4 3 5 3 2 3 2 2 2 4 3 2 2 3 7 3 5 6 6 3 6 7 9 10 9 7 6 6 7 9 12 15 14 15 16
4 3 5 8 3 1 2 2 2 1 4 4 3 2 2 2 2 4 2 2 5 5 5 3 3 4 5 6 6 6 6 7 6 6 5 7 6 6 12 11 12 14 16 19
3 5 4 3 3 2 1 1 2 2 5 2 1 2 3 5 3 2 7 4 6 4 3 3 4 5 3 5 6 7 7 6 5 10 9 9 8 8 10 12 12 17 19 18
5 5 5 4 2 3 3 4 3 7 4 3 2 6 8 2 3 4 5 5 3 3 7 4 6 7 5 6 6 6 7 6 9 7 10 13 11 8 8 7 17 16 16 17
Wind_Direction
14 7 6 8 8 21 50 34 13 346 347 51 51 61 115 100 151 281 171 86 100 134 148 150 156 166 139 133 162 180 182 136 331 245 242 176 168 198 176 133 252 237 214 268
18 12 7 10 12 27 346 96 226 342 349 95 15 129 80 91 169 33 294 151 40 332 178 122 143 217 142 136 188 163 184 184 290 33 7 153 215 218 210 182 132 212 216 264
15 16 9 8 11 14 21 54 37 335 29 65 118 108 152 114 347 143 221 121 351 296 200 66 149 176 227 164 147 132 163 255 224 207 216 143 214 216 208 191 207 228 231 278
14 14 10 6 5 348 53 48 277 187 33 339 24 60 180 127 181 266 229 195 206 187 185 175 216 164 262 186 200 176 158 252 234 257 261 257 249 239 216 206 217 207 253 244
5 13 12 6 8 29 43 103 108 354 287 105 50 354 290 192 244 166 269 245 189 163 197 206 211 158 204 207 169 179 202 270 295 273 252 248 252 247 237 231 229 241 257 275
353 4 16 13 9 17 51 3 50 110 286 5 88 213 193 259 112 309 38 356 49 253 245 224 197 201 245 233 172 207 204 216 344 268 314 312 287 235 219 215 213 222 236 246
335 353 2 17 18 15 58 34 328 60 253 141 200 211 132 161 218 320 291 132 220 320 346 317 285 277 257 252 248 194 185 6 242 276 324 269 239 226 199 205 234 221 240 239
316 330 349 3 20 22 27 21 101 96 266 209 247 158 156 117 120 202 244 248 183 80 3 348 327 328 304 249 225 213 183 141 279 268 274 289 301 184 163 184 282 224 231 247
300 301 313 342 3 25 353 19 41 120 124 258 246 148 166 182 218 289 210 99 92 73 105 28 291 258 243 235 95 61 161 147 138 331 293 260 240 190 150 97 295 287 228 246
287 288 289 290 340 357 348 259 352 271 168 262 36 203 178 172 161 176 169 194 88 78 123 184 197 270 291 251 207 169 121 200 224 231 273 283 249 187 145 95 235 297 325 287
290 275 276 280 270 277 306 276 234 326 247 279 213 186 192 163 149 155 196 69 346 58 173 177 248 184 256 324 213 179 172 160 202 186 221 272 167 100 175 217 243 274 277 245
284 278 264 262 273 256 231 244 222 230 192 253 271 247 236 223 198 145 178 175 169 189 144 222 227 263 311 179 273 222 220 193 186 188 217 235 211 218 217 199 218 253 255 258
276 273 267 256 253 261 249 231 237 255 356 298 345 253 238 225 219 206 143 285 179 160 162 168 215 240 142 209 239 239 261 189 228 24 264 237 249 243 243 233 234 241 245 240
276 261 259 252 247 248 253 253 225 199 154 248 275 257 253 252 210 212 210 151 134 119 110 159 202 205 182 231 236 204 208 149 209 262 280 277 274 215 272 185 228 266 283 254
276 254 250 244 239 240 256 264 256 238 194 219 273 289 224 212 211 204 192 186 137 145 140 171 210 214 213 253 304 234 183 208 203 234 226 205 237 190 217 289 271 267 269 283
276 246 234 233 224 217 218 302 241 232 223 110 293 285 183 175 180 182 185 182 180 180 171 207 241 229 150 236 243 244 221 221 211 238 195 206 244 254 251 257 261 273 293 280
278 235 211 221 210 205 200 203 306 201 178 243 299 274 215 164 136 146 133 136 147 147 233 237 209 216 191 231 243 213 227 222 233 227 237 286 226 251 180 268 266 277 268 266
270 218 194 198 207 223 238 239 239 150 201 159 262 275 305 174 181 172 192 156 130 187 212 314 196 224 215 254 234 242 251 233 236 217 209 232 282 297 281 281 288 290 282 277
220 175 168 173 201 217 205 208 221 212 221 215 172 203 255 144 208 155 107 150 214 218 193 210 148 218 225 228 227 227 210 210 206 182 212 263 263 279 296 294 302 286 291 292
157 141 166 205 204 192 167 138 152 188 219 223 215 203 237 147 134 257 96 188 216 213 233 135 199 255 264 257 242 216 197 204 174 152 263 209 266 266 310 299 290 277 284 303
153 174 196 138 143 141 126 195 202 175 234 207 220 204 155 214 139 186 207 212 194 208 245 181 229 262 240 236 242 226 189 182 190 176 126 140 174 214 240 272 276 295 308 304
198 149 120 156 191 197 188 205 196 197 222 215 194 211 161 185 149 140 204 212 36 247 130 133 261 249 249 248 245 208 186 171 165 172 172 199 220 239 248 265 275 284 296 311
147 167 175 190 167 204 203 188 220 224 206 178 155 110 133 109 206 174 145 180 225 63 154 233 243 255 294 258 181 187 162 134 139 167 166 180 240 273 262 267 271 278 279 289
189 189 216 207 190 229 200 182 184 221 130 147 131 115 150 167 135 171 185 226 98 253 253 235 264 279 270 194 164 130 164 158 161 174 185 207 231 256 277 289 298 297 291 295
234 205 232 215 223 296 180 174 94 285 129 125 99 53 123 191 190 189 62 352 256 220 238 245 250 285 248 183 169 165 174 178 177 163 191 217 210 248 282 296 298 293 297 299
253 225 244 247 191 207 334 153 159 202 136 100 70 123 208 217 178 150 212 161 228 258 238 269 292 286 231 177 174 192 188 195 185 184 200 218 233 235 265 290 298 302 302 299
221 237 214 231 269 213 187 185 177 153 145 169 159 208 213 113 177 232 197 213 243 294 304 288 296 290 241 188 191 200 198 197 206 207 211 237 256 265 279 290 296 299 294 290